Regional Weather Roundup
Issued by NWS

Home | Current Version | Previous Version | Text Only | Print | Product List | Glossary Off
Versions: 1 2 3 4 5 6 7 8 9 10 11 12 13 14 15 16 17 18 19 20 21 22 23 24 25 26 27 28 29 30 31 32 33 34 35 36 37 38 39 40 41 42 43 44 45 46 47 48 49 50

000
ASUS43 KMPX 280901
RWRMN
WEATHER ROUNDUP FOR MINNESOTA
NATIONAL WEATHER SERVICE TWIN CITIES/CHANHASSEN MN
400 AM CDT TUE MAR 28 2017


NOTE: "FAIR" INDICATES FEW OR NO CLOUDS BELOW 12,000 FEET WITH NO
SIGNIFICANT WEATHER AND/OR OBSTRUCTIONS TO VISIBILITY. N/A MEANS
CURRENT SKY AND/OR WEATHER CONDITIONS ARE NOT AVAILABLE.

MNZ060>063-068>070-281000-
   Twin Cities Metro

CITY           SKY/WX    TMP DP  RH WIND       PRES   REMARKS
TWIN CITIES    PTCLDY    39  34  82 CALM      30.06S
ST PAUL        PTCLDY    36  35  96 CALM      30.08R
CRYSTAL        PTCLDY    35  29  78 CALM      30.05S
BLAINE         PTCLDY    36  36 100 CALM      30.06S
LAKEVILLE      CLOUDY    30  30 100 CALM      30.07R
EDEN PRAIRIE   CLOUDY    39  34  82 CALM      30.05S
SOUTH ST PAUL  PTCLDY    34  33  95 CALM      30.07R
LAKE ELMO      FAIR      30  30 100 CALM      30.07S
$$
MNZ001>005-007-008-013>017-022>024-027-028-281000-
   Northwest Minnesota

CITY           SKY/WX    TMP DP  RH WIND       PRES   REMARKS
BEMIDJI        CLOUDY    32  28  84 CALM      30.06R
HALLOCK        CLOUDY    34  32  93 N3        30.13R
ROSEAU         CLOUDY    34  28  80 N3        30.12R
WARROAD        CLOUDY    37  30  75 N6        30.12S
THIEF RVR FALL CLOUDY   N/A N/A N/A N7        30.11R
CROOKSTON      CLOUDY    34  34 100 NE7       30.10F FOG     WCI  28
FOSSTON        CLOUDY    32  30  93 N3        30.09R
DETROIT LAKES  CLEAR     32  32 100 NW5       30.08R FOG     WCI  27
MOORHEAD       DRZL/FOG  34  34 100 N9        30.10R VSB 1/4 WCI  26
PARK RAPIDS    CLEAR     30  23  75 N5        30.05F WCI  25
MAHNOMEN       FAIR      32  32  99 N3        30.07R
$$
MNZ006-009>011-018-025>026-281000-
   North Central Minnesota

CITY           SKY/WX    TMP DP  RH WIND       PRES   REMARKS
BAUDETTE       CLOUDY    33  28  81 NW3       30.10R
FLAG ISLAND    CLOUDY    34  30  86 N6        30.12R WCI  29
INTL FALLS     CLOUDY    39  27  62 NE3       30.08S
WASKISH        CLOUDY    34  28  80 CALM      30.08S
BIG FORK       CLOUDY    34  27  75 CALM      30.06S
LONGVILLE      PTCLDY    27  25  93 CALM      30.07S
GRAND RAPIDS   CLEAR     27  25  92 CALM      30.09S
CRANE LAKE     CLOUDY    28  27  93 CALM      30.10S
ORR            CLOUDY    28  25  86 CALM      30.05S
COOK           CLOUDY    30  27  86 CALM      30.07F
WALKER         FAIR      29  24  79 CALM      30.07S
$$
MNZ012-019>021-037-281000-
   Northeast Minnesota

CITY           SKY/WX    TMP DP  RH WIND       PRES   REMARKS
DULUTH         CLEAR     29  26  89 N3        30.06S
ELY            CLOUDY    28  27  93 CALM      30.07R
HIBBING        MOCLDY    25  24  96 CALM      30.07S
EVELETH        PTCLDY    27  25  92 CALM      30.08S
DULUTH HARBOR  PTCLDY    30  28  93 CALM      30.09S
TWO HARBORS    CLEAR     37  30  75 NW6       30.06R
SILVER BAY     CLEAR     27  27 100 CALM      30.06R
GRAND MARAIS     N/A     30  28  92 E3        30.06S
G MARAIS ARPRT PTCLDY    27  21  80 N5        30.04S WCI  21
$$
MNZ029>031-032-039>041-046>048-054>057-064-281000-
   West Central Minnesota

CITY           SKY/WX    TMP DP  RH WIND       PRES   REMARKS
FERGUS FALLS   CLEAR     36  36 100 CALM      30.10R
WHEATON        CLEAR     36  34  93 CALM      30.08S
MORRIS         CLEAR     32  30  93 CALM      30.05F
ALEXANDRIA     CLEAR     34  32  92 S3        30.06F
ELBOW LAKE     FAIR      32  30  94 E6        30.06F WCI  26
WADENA         CLEAR     28  27  93 S5        30.05F WCI  23
GLENWOOD       CLEAR     34  30  86 N5        30.07S WCI  30
APPLETON       CLOUDY    34  30  86 CALM      30.06S
BENSON         CLOUDY    34  28  80 CALM      30.08S
ORTONVILLE     CLOUDY    36  30  80 NE6       30.05F
MADISON        CLOUDY    41  39  93 CALM      30.05F
WILLMAR        MOCLDY    37  36  93 NE3       30.08S
$$
MNZ033>034-036-042>043-049>051-058-059-281000-
   Central Minnesota

CITY           SKY/WX    TMP DP  RH WIND       PRES   REMARKS
ST CLOUD       PTCLDY    30  28  92 N5        30.07R WCI  25
SAUK CENTRE    FAIR      30  29  96 CALM      30.07S
PAYNESVILLE      N/A     30  30 100 CALM      30.08S FOG
AITKIN         CLEAR     27  23  86 CALM      30.06F
PINE RIVER     CLEAR     27  25  93 CALM      30.10S
BRAINERD       CLEAR     27  25  92 CALM      30.08R
STAPLES        CLOUDY    28  27  93 CALM      30.06F
LONG PRAIRIE   FAIR      30  30 100 CALM      30.07S
LITTLE FALLS   PTCLDY    28  27  93 CALM      30.08S
LITCHFIELD     CLOUDY    37  36  93 CALM      30.08R
BUFFALO        CLOUDY    33  31  92 CALM      30.07S
MAPLE LAKE     CLOUDY    31  31  99 CALM      30.07S
HUTCHINSON     PTCLDY    35  34  96 CALM      30.07S
$$
MNZ037-044-045-052-053-281000-
   East Central Minnesota

CITY           SKY/WX    TMP DP  RH WIND       PRES   REMARKS
PRINCETON      CLEAR     30  28  93 CALM      30.08R
MORA           CLEAR     27  27 100 CALM      30.10R
CAMBRIDGE      PTCLDY    30  28  93 CALM      30.06S
RUSH CITY      PTCLDY    28  27  93 CALM      30.08R
MOOSE LAKE     CLEAR     28  27  93 CALM      30.06S
CLOQUET        CLEAR     27  25  93 NW5       30.08R WCI  21
MCGREGOR       CLEAR     28  27  93 CALM      30.08S
$$
MNZ071>073-080-081-089-090-097-098-281000-
   Southwest Minnesota

CITY           SKY/WX    TMP DP  RH WIND       PRES   REMARKS
MONTEVIDEO     CLOUDY    37  34  87 E5        30.08S
GRANITE FALLS  CLOUDY    41  35  80 NE5       30.07S
CANBY          CLOUDY    42  38  88 CALM      30.06F
MARSHALL       CLOUDY    40  36  86 CALM      30.06S
REDWOOD FALLS  CLOUDY    40  33  76 CALM      30.06S
OLIVIA         CLOUDY    34  32  93 CALM      30.06S
PIPESTONE      CLEAR     37  34  87 CALM      30.05S FOG
WINDOM         CLOUDY    36  36 100 W3        30.05F
WORTHINGTON    MOCLDY    35  34  96 CALM      30.06S
JACKSON        CLOUDY    36  34  93 NW3       30.06F
TRACY          CLOUDY    43  39  88 SW6       30.06S
SLAYTON        PTCLDY    35  34  95 W5        30.06F WCI  31
$$
MNZ065>067-074>077-082>085-091>093-281000-
   South Central Minnesota

CITY           SKY/WX    TMP DP  RH WIND       PRES   REMARKS
MANKATO        PTCLDY    39  38  96 CALM      30.07S FOG
NEW ULM        MOCLDY    36  32  87 CALM      30.06S
ST JAMES       PTCLDY    36  34  93 CALM      30.06F
FAIRMONT       MOCLDY    36  34  92 NW3       30.06F
GLENCOE        PTCLDY    35  34  96 CALM      30.06S
FARIBAULT      PTCLDY    30  30 100 CALM      30.07S FOG
OWATONNA       CLEAR     32  30  93 CALM      30.07R FOG
WASECA         PTCLDY    32  30  93 CALM      30.08R
ALBERT LEA     CLEAR     32  32 100 CALM      30.06R FOG
$$
MNZ078>079-086>088-094>096-281000-
   Southeast Minnesota

CITY           SKY/WX    TMP DP  RH WIND       PRES   REMARKS
ROCHESTER      CLEAR     35  35 100 NE6       30.06S FOG     WCI  30
RED WING       CLEAR     30  28  93 CALM      30.07S FOG
STANTON        CLEAR     31  29  93 SW3       30.06S
DODGE CENTER   FOG       32  32 100 NE3       30.06S VSB 1/4
WINONA         FOG       34  34 100 CALM      30.09R VSB 1/2
AUSTIN         FOG       30  30 100 CALM      30.06R VSB 1/2
PRESTON        MOCLDY    35  33  93 N5        30.06S FOG     WCI  31
$$
ABBREVIATIONS USED IN REMARKS
   TC - TEMPERATURES IN CELSIUS
  WCI - WIND CHILL INDEX
   HX - HEAT INDEX
  VSB - VISIBILITY
$$



USA.gov is the U.S. government's official web portal to all federal, state and local government web resources and services.